Regional Weather Roundup
Issued by NWS

Home | Current Version | Previous Version | Text Only | Print | Product List | Glossary Off
Versions: 1 2 3 4 5 6 7 8 9 10 11 12 13 14 15 16 17 18 19 20 21 22 23 24 25 26 27 28 29 30 31 32 33 34 35 36 37 38 39 40 41 42 43 44 45 46 47 48 49 50

000
ASUS43 KMPX 271110
RWRMN
WEATHER ROUNDUP FOR MINNESOTA
NATIONAL WEATHER SERVICE TWIN CITIES/CHANHASSEN MN
600 AM CDT TUE SEP 27 2016


NOTE: "FAIR" INDICATES FEW OR NO CLOUDS BELOW 12,000 FEET WITH NO
SIGNIFICANT WEATHER AND/OR OBSTRUCTIONS TO VISIBILITY. N/A MEANS
CURRENT SKY AND/OR WEATHER CONDITIONS ARE NOT AVAILABLE.

MNZ060>063-068>070-271200-
   Twin Cities Metro

CITY           SKY/WX    TMP DP  RH WIND       PRES   REMARKS
TWIN CITIES    CLEAR     50  38  63 W13       29.83F
ST PAUL        CLEAR     50  39  66 W14G22    29.83S
CRYSTAL        CLEAR     50  37  61 W12       29.83S
BLAINE         CLEAR     50  41  71 W14       29.82S
LAKEVILLE      CLEAR     46  39  76 W9        29.84S
EDEN PRAIRIE   CLEAR     50  39  66 W9        29.84S
LAKEVILLE      CLEAR     46  39  76 W9        29.84S
SOUTH ST PAUL  CLEAR     50  38  62 W9        29.82S
LAKE ELMO      FAIR      50  41  71 W12G20    29.82S
$$
MNZ001>005-007-008-013>017-022>024-027-028-271200-
   Northwest Minnesota

CITY           SKY/WX    TMP DP  RH WIND       PRES   REMARKS
BEMIDJI        CLOUDY    45  41  86 W14       29.81S
HALLOCK        CLEAR     45  43  93 NW9       29.89R
ROSEAU         CLOUDY    46  43  87 W9        29.82S
WARROAD        CLOUDY    50  45  81 NW13G20   29.81R
THIEF RVR FALL CLEAR     44  40  85 NW13      29.87F
CROOKSTON      CLEAR     43  39  87 NW10      29.90S
FOSSTON        CLEAR     43  39  87 W10       29.87S
DETROIT LAKES  CLEAR     45  41  87 NW12      29.90R
MOORHEAD       CLEAR     41  36  81 W8        29.92F
PARK RAPIDS    PTCLDY    45  39  79 NW14      29.84S
MAHNOMEN       FAIR      41  38  92 W12       29.88S
$$
MNZ006-009>011-018-025>026-271200-
   North Central Minnesota

CITY           SKY/WX    TMP DP  RH WIND       PRES   REMARKS
BAUDETTE       CLOUDY    50  42  74 NW23G33   29.75F
FLAG ISLAND    MOCLDY    50  43  76 NW21      29.76S
INTL FALLS     CLOUDY    47  45  93 NW12      29.70S
WASKISH        CLOUDY    48  45  87 NW15      29.78S
BIG FORK       DRIZZLE   46  45  93 NW6       29.74S
LONGVILLE      CLOUDY    48  43  81 W12       29.79S
GRAND RAPIDS   CLOUDY    49  43  80 NW15      29.75S
CRANE LAKE     CLOUDY    46  45  93 N6        29.67S
ORR            CLOUDY    46  43  87 NW17G24   29.66S
COOK           LGT RAIN  46  45  93 NW9G17    29.68S
WALKER         CLOUDY    46  40  80 W15G22    29.80F
$$
MNZ012-019>021-037-271200-
   Northeast Minnesota

CITY           SKY/WX    TMP DP  RH WIND       PRES   REMARKS
DULUTH         DRIZZLE   49  45  86 NW14G25   29.68R FOG
ELY            CLOUDY    46  45  93 NW8G16    29.62S
HIBBING        CLOUDY    46  44  93 NW17      29.69S
EVELETH        MOCLDY    47  44  87 NW9       29.68S
DULUTH HARBOR  CLOUDY    54  48  82 W20G28    29.69S
TWO HARBORS    MOCLDY    52  46  82 NW6       29.63S
SILVER BAY     MOCLDY    48  45  87 W5        29.59F
GRAND MARAIS     N/A     49  45  86 W6        29.53R
G MARAIS ARPRT DRIZZLE   45  39  81 W9G21     29.52S
$$
MNZ029>031-032-039>041-046>048-054>057-064-271200-
   West Central Minnesota

CITY           SKY/WX    TMP DP  RH WIND       PRES   REMARKS
FERGUS FALLS   CLEAR     36  36 100 W3        29.95S
MORRIS         CLEAR     39  36  87 W8        29.93S
ALEXANDRIA     CLEAR     43  38  82 W12       29.90F
ELBOW LAKE     FAIR      38  36  92 NW7       29.92F
GLENWOOD       CLEAR     39  36  87 W10       29.90S
BENSON         CLEAR     37  34  87 CALM      29.93S
ORTONVILLE     CLEAR     46  37  71 CALM      29.95S
MADISON          N/A     43  37  81 W6        29.96R
WILLMAR        FAIR      43  37  81 W8        29.93S
$$
MNZ033>034-036-042>043-049>051-058-059-271200-
   Central Minnesota

CITY           SKY/WX    TMP DP  RH WIND       PRES   REMARKS
ST CLOUD       CLEAR     46  40  79 W10       29.85R
SAUK CENTRE    FAIR      42  39  87 W8        29.88S
PAYNESVILLE    CLEAR     40  39  93 W6        29.89S
AITKIN         CLOUDY    52  41  66 W6        29.76F
PINE RIVER     CLOUDY    46  41  81 W7        29.85S
BRAINERD       CLOUDY    48  42  80 NW13      29.82S
STAPLES        CLEAR     45  39  81 W12       29.85S
LONG PRAIRIE   FAIR      43  39  87 W8        29.88R
LITTLE FALLS   CLEAR     45  37  76 W6        29.85S
LITCHFIELD     CLEAR     46  41  81 W7        29.89S
BUFFALO        CLEAR     49  39  70 W10       29.87R
MAPLE LAKE     CLEAR     49  41  75 W9        29.87S
HUTCHINSON     CLEAR     42  39  88 W10       29.90S
$$
MNZ037-044-045-052-053-271200-
   East Central Minnesota

CITY           SKY/WX    TMP DP  RH WIND       PRES   REMARKS
PRINCETON      CLEAR     48  43  81 W12       29.83R
MORA           MOCLDY    45  39  81 NW9G16    29.81S
CAMBRIDGE      CLEAR     50  39  66 W9        29.79S
MOOSE LAKE     CLOUDY    50  41  71 NW10G17   29.72S
HINCKLEY       PTSUNNY   50  43  76 W9        29.76S
CLOQUET        CLOUDY    50  43  76 W13G20    29.70S
MCGREGOR       CLOUDY    50  43  76 W10G16    29.76R
$$
MNZ071>073-080-081-089-090-097-098-271200-
   Southwest Minnesota

CITY           SKY/WX    TMP DP  RH WIND       PRES   REMARKS
MONTEVIDEO     CLEAR     43  36  75 NW6       29.96S
GRANITE FALLS  CLEAR     40  37  90 W6        29.96S
CANBY          CLEAR     48  38  68 NW9       29.97S
MARSHALL       CLEAR     45  37  73 W10       29.96S
REDWOOD FALLS  CLEAR     44  37  76 W9        29.94R
OLIVIA         CLEAR     43  36  75 W7        29.92S
PIPESTONE      CLEAR     43  37  81 W5        29.99S
WINDOM         CLEAR     43  37  81 W6        29.95S
WORTHINGTON    CLEAR     42  36  79 W10       29.98S
JACKSON        PTCLDY    45  34  65 W6        29.96S
TRACY          CLEAR     47  38  71 W6        29.96S
SLAYTON        CLEAR     43  36  75 W7        29.98S
$$
MNZ065>067-074>077-082>085-091>093-271200-
   South Central Minnesota

CITY           SKY/WX    TMP DP  RH WIND       PRES   REMARKS
MANKATO        CLEAR     47  38  71 W10       29.91S
NEW ULM        CLEAR     43  37  81 W10       29.92S
ST JAMES       CLEAR     46  37  71 W8        29.94S
FAIRMONT       CLEAR     44  38  79 W7        29.94S
GLENCOE        CLEAR     45  40  85 W8        29.88S
FARIBAULT      CLEAR     48  39  71 W8        29.87F
OWATONNA       CLEAR     43  37  81 W8        29.88S
WASECA         CLEAR     41  37  87 W7        29.90F
ALBERT LEA     CLEAR     46  37  71 W6        29.90S
$$
MNZ078>079-086>088-094>096-271200-
   Southeast Minnesota

CITY           SKY/WX    TMP DP  RH WIND       PRES   REMARKS
ROCHESTER      CLEAR     45  38  76 W12       29.85F
RED WING       CLEAR     48  37  66 W10       29.80S
DODGE CENTER   CLEAR     43  37  81 W10       29.86S
WINONA         CLEAR     52  37  58 W12G21    29.80S
AUSTIN           N/A     46  37  71 W9        29.88S
PRESTON        CLEAR     44  36  73 W12       29.85F
$$
ABBREVIATIONS USED IN REMARKS
   TC - TEMPERATURES IN CELSIUS
  WCI - WIND CHILL INDEX
   HX - HEAT INDEX
  VSB - VISIBILITY
$$




USA.gov is the U.S. government's official web portal to all federal, state and local government web resources and services.